Theta_e
304 305 304 305 306 304 305 307 304 307 308 313 318 323 326 330 331 331 333 335 338 338 340 341 342 343 345 345 347 347 349 350 350 353 354 353 352 351 353 355 356 358 357 356
301 304 302 302 306 306 306 307 308 308 310 319 320 326 326 328 330 331 333 335 337 339 340 340 341 342 344 345 346 348 348 348 350 351 350 346 351 351 351 351 352 356 356 356
300 305 302 299 304 306 308 311 312 307 314 319 321 324 327 330 331 331 333 335 336 338 340 341 341 343 343 345 348 348 349 350 349 349 349 349 349 349 349 350 351 350 352 353
302 304 297 307 312 311 310 312 312 313 315 319 323 327 331 333 332 334 336 337 339 341 342 343 343 343 346 347 348 349 349 350 350 349 348 349 348 347 348 349 349 349 350 350
301 301 305 307 310 309 309 310 314 314 316 318 323 327 328 332 334 337 339 341 342 344 347 348 348 347 348 346 347 347 348 349 349 349 348 348 348 348 349 349 348 349 349 349
304 298 296 308 311 314 314 306 317 316 317 320 324 317 324 331 334 337 340 341 342 345 347 348 349 350 349 348 348 348 349 349 350 350 349 348 348 348 348 347 345 345 345 346
302 300 304 313 314 314 303 310 314 317 319 323 322 325 332 333 335 340 341 341 345 345 344 347 348 349 347 348 347 350 350 349 350 350 350 350 349 349 348 348 347 346 346 349
304 301 299 313 311 309 316 316 316 318 323 323 328 327 332 333 336 339 340 342 344 344 344 346 348 348 347 346 349 349 350 350 350 350 348 347 347 348 348 346 342 342 341 343
305 306 315 317 315 318 320 318 319 319 322 325 326 328 331 334 336 339 341 342 344 345 346 345 347 348 347 348 348 347 347 348 348 345 345 347 345 344 342 344 343 341 340 340
309 310 314 316 318 320 320 319 322 323 323 325 326 329 331 335 336 338 340 341 343 343 340 337 338 341 345 344 345 345 344 345 344 342 341 344 341 338 338 338 337 338 334 334
308 314 316 316 317 317 318 320 321 324 324 324 327 330 332 333 336 338 340 339 339 337 336 338 339 338 338 341 344 343 343 341 339 339 338 338 337 334 330 332 325 329 329 329
306 313 315 316 316 319 315 315 320 323 323 326 329 331 333 334 337 338 336 335 335 336 335 334 338 340 342 344 344 343 340 338 337 338 338 337 335 334 307 307 304 302 300 309
311 318 319 319 318 320 316 316 318 322 324 324 330 333 335 334 336 330 335 333 333 333 334 336 338 339 341 341 341 339 338 338 338 331 336 331 334 332 331 321 303 300 299 299
316 317 317 316 313 317 317 317 319 324 325 327 329 332 334 333 328 331 331 333 334 334 334 337 337 338 339 339 339 338 339 315 334 333 332 331 334 333 331 326 324 327 308 303
313 317 318 318 317 316 316 316 318 321 323 325 328 329 330 328 330 332 332 332 332 333 334 335 335 336 337 337 337 337 336 333 334 331 331 329 332 328 324 323 320 319 319 310
313 314 314 313 314 314 315 316 317 321 324 324 326 327 329 332 333 331 331 332 330 330 333 334 335 337 335 333 333 332 333 326 326 332 331 329 327 323 322 321 320 319 318 318
310 309 311 312 313 314 315 318 319 322 325 324 326 328 328 329 329 329 330 331 334 335 335 336 334 334 333 333 333 332 331 331 328 332 330 326 325 322 321 322 322 320 319 314
316 314 314 314 314 316 316 319 320 324 325 326 327 328 327 327 329 330 330 333 333 333 335 335 333 332 332 331 331 330 329 327 328 328 328 326 323 322 321 321 320 319 317 315
317 316 315 315 316 317 318 321 323 326 327 328 326 326 328 329 331 331 332 331 330 331 330 331 323 327 331 331 325 328 326 322 323 323 325 322 323 322 321 321 320 319 318 319
320 316 315 316 318 319 319 323 326 324 327 328 328 328 328 329 331 331 332 331 332 332 334 331 329 332 332 330 321 324 322 323 323 321 323 324 324 320 320 314 320 319 322 322
320 317 315 316 317 321 324 326 324 325 328 328 328 328 329 331 331 332 330 328 330 329 332 325 331 330 327 323 322 324 321 321 323 323 323 323 321 321 319 319 319 323 324 324
316 316 317 318 320 323 325 324 325 327 327 328 330 330 330 330 331 331 333 330 329 316 328 330 327 322 324 319 324 323 322 323 325 325 325 323 321 320 318 319 320 324 323 323
318 319 320 322 322 322 326 328 329 329 329 330 331 331 330 329 329 328 326 329 325 321 330 327 319 316 316 323 325 324 321 320 323 324 324 322 320 319 318 320 321 323 321 320
319 316 317 321 324 325 325 328 330 329 329 330 329 331 330 328 330 333 331 319 316 316 327 323 318 313 313 326 324 321 320 321 322 324 323 312 322 321 319 318 318 321 318 318
320 320 320 321 321 323 321 323 323 323 324 325 326 326 329 331 330 330 331 328 312 319 325 312 312 312 323 325 325 322 322 322 321 321 322 322 319 318 317 318 320 319 319 320
322 320 323 322 322 322 321 320 320 323 325 325 326 327 329 329 328 329 331 323 326 319 325 320 321 321 323 323 325 324 322 319 318 318 316 317 317 317 318 318 318 318 320 319
317 312 317 319 321 325 326 325 324 325 326 329 328 329 330 332 330 328 320 328 327 325 324 322 321 319 322 323 323 322 323 321 312 318 318 318 318 318 318 318 319 319 319 319
Wind_Speed
14 11 8 11 11 15 13 11 10 11 10 15 8 11 11 10 10 11 11 10 9 9 8 8 9 10 10 9 9 9 9 10 10 7 7 7 5 5 7 8 9 9 10 11
6 3 10 13 11 15 13 7 4 5 8 7 3 5 9 10 11 11 10 9 9 8 9 9 10 10 10 11 11 10 10 10 8 8 8 5 6 6 5 6 7 8 10 11
7 1 5 5 15 16 13 11 11 9 11 7 7 11 13 13 12 12 11 10 10 10 9 9 10 9 10 9 10 11 10 8 8 8 8 8 7 6 7 7 6 8 9 10
4 3 16 1 4 15 19 15 13 5 8 10 8 8 10 13 14 12 11 11 10 9 9 9 9 10 9 9 8 8 8 8 8 8 7 6 7 9 8 8 9 9 9 9
7 8 5 4 4 6 11 12 16 14 5 4 4 8 6 10 10 11 9 9 10 9 8 8 10 11 10 8 7 6 6 5 5 5 5 6 7 7 7 8 8 9 9 10
4 14 16 6 4 4 2 10 11 15 8 9 12 9 9 16 13 11 11 10 10 11 10 9 8 9 9 8 7 6 6 5 5 5 4 4 4 5 5 6 6 6 8 9
11 12 16 5 8 5 4 4 11 10 11 14 12 3 6 17 14 13 13 13 12 11 10 8 8 8 8 7 6 4 4 5 5 4 3 2 3 3 4 5 5 6 7 8
13 15 15 3 4 21 4 6 8 7 8 16 11 4 11 17 17 16 15 14 14 11 9 8 8 7 7 6 4 4 4 5 5 4 3 2 4 4 4 5 4 4 4 4
6 8 5 5 1 3 6 5 6 10 8 10 11 9 10 14 16 15 16 14 12 11 10 6 6 5 6 3 5 4 5 5 4 3 2 2 3 4 5 4 5 3 3 3
9 2 6 4 2 4 7 8 11 8 12 10 11 10 11 14 13 14 14 15 13 12 10 8 5 5 4 3 4 5 6 5 3 3 2 3 3 3 4 5 5 3 2 3
8 3 2 3 12 11 13 11 11 12 11 11 11 11 13 14 14 14 15 13 13 12 10 9 7 5 4 4 5 6 5 5 4 3 4 4 4 3 3 2 2 3 2 3
3 10 6 5 10 6 13 14 13 13 11 5 11 13 14 13 15 15 15 12 11 10 9 9 7 7 6 5 5 5 5 4 2 2 3 4 5 3 5 4 4 6 5 6
8 5 9 12 11 3 10 12 14 15 12 8 8 12 16 16 15 14 13 13 12 11 9 9 7 7 6 5 5 4 3 3 3 3 2 3 4 5 5 5 8 8 7 7
8 9 12 11 8 11 12 14 12 12 8 6 8 11 14 14 13 15 14 13 12 11 9 8 7 6 5 4 4 3 3 1 2 2 4 5 4 5 5 4 5 5 5 7
17 14 14 15 15 17 15 14 14 12 9 3 9 11 12 16 15 14 13 12 12 11 9 7 7 6 5 4 3 4 4 4 4 4 4 4 4 2 2 2 3 4 4 2
15 15 14 14 16 17 16 12 10 10 8 4 7 12 15 12 15 14 14 14 14 12 11 9 6 5 4 4 5 4 4 5 6 5 4 3 4 3 3 3 3 2 1 0
16 18 14 13 13 13 12 10 8 8 8 5 7 7 10 10 11 12 13 13 10 10 10 9 6 5 5 3 5 4 3 4 4 5 5 3 4 3 2 3 2 1 1 1
18 22 18 13 7 9 11 9 6 6 6 6 5 10 13 15 15 15 13 12 10 9 9 8 7 7 5 4 5 5 4 5 6 6 6 5 5 4 4 3 2 2 1 2
13 18 17 13 11 10 9 9 6 4 4 3 6 11 12 10 9 10 15 13 12 11 9 8 9 7 5 4 5 6 4 4 5 7 6 4 5 5 4 5 4 3 3 3
12 13 13 14 12 11 11 9 8 7 5 4 7 9 12 12 12 13 12 12 10 5 10 10 9 7 5 5 6 5 5 7 7 6 5 6 6 6 4 5 6 5 5 5
13 12 14 14 12 11 11 8 7 8 5 4 7 8 9 9 13 14 13 10 9 9 8 10 7 5 4 4 5 4 5 6 6 6 5 6 5 6 6 7 7 7 6 6
6 10 12 11 9 9 9 9 8 7 5 5 6 8 10 11 13 12 6 5 7 8 7 6 6 6 3 5 4 4 5 6 6 4 5 6 6 7 7 8 7 7 7 7
6 7 7 7 7 6 5 5 5 5 5 5 8 10 10 9 9 10 7 6 8 9 7 6 7 8 6 5 2 3 4 6 5 4 3 5 6 7 7 7 5 5 7 7
6 4 3 4 5 4 5 4 4 5 5 5 5 5 7 8 6 3 5 11 13 13 7 6 8 6 4 2 0 2 3 3 4 3 2 6 6 7 7 7 6 5 5 3
2 1 4 6 4 4 5 5 6 5 6 6 8 4 4 3 3 6 6 6 11 10 7 9 8 7 4 2 1 1 2 2 2 1 1 4 6 6 7 7 7 6 5 3
6 3 5 8 2 4 5 5 1 1 4 3 4 4 3 2 3 5 6 7 9 9 8 9 8 7 4 4 2 2 3 3 3 4 5 5 6 6 7 7 7 7 3 4
6 6 5 4 4 1 2 5 5 3 4 5 6 4 4 3 4 5 6 7 7 9 7 8 7 6 6 6 6 5 7 7 6 6 5 6 6 5 5 6 5 5 6 4
Wind_Direction
243 252 216 246 195 182 210 203 211 239 218 252 202 184 188 157 141 146 152 167 171 177 180 186 190 196 207 204 192 192 196 199 205 200 197 189 208 223 237 236 243 239 236 240
266 325 233 241 237 200 210 196 222 198 230 238 141 140 161 165 154 151 162 169 165 169 177 181 190 193 195 198 193 189 199 206 199 186 181 184 192 221 235 247 246 246 242 233
248 337 156 239 228 203 193 196 191 186 217 161 181 193 176 168 174 167 166 159 165 172 174 178 183 185 191 192 192 200 208 203 195 203 205 194 189 202 219 226 232 235 243 244
203 191 235 94 300 224 205 194 195 238 221 208 220 189 179 180 172 170 163 163 156 158 151 150 150 161 166 168 177 184 190 191 189 190 198 201 210 221 234 234 238 240 241 238
223 227 286 232 143 173 198 220 205 220 211 202 154 149 191 192 182 173 163 160 154 143 134 133 137 142 147 154 159 169 175 174 175 181 185 188 205 215 223 228 240 240 248 250
219 229 234 202 125 27 346 243 204 210 200 168 163 176 199 180 176 154 156 152 151 143 138 142 138 144 139 140 156 167 169 163 158 166 177 194 210 226 231 236 249 246 249 247
223 244 240 255 115 94 199 250 317 217 197 171 195 217 149 159 168 163 156 154 148 151 147 148 147 152 145 155 185 174 157 156 165 177 190 235 251 238 262 257 251 252 269 273
210 218 235 135 139 185 207 308 318 304 235 198 188 132 155 166 162 159 156 152 159 151 147 155 161 173 165 189 167 178 189 196 187 173 197 238 270 286 276 252 256 267 273 287
289 217 2 328 90 93 24 326 329 319 312 239 181 169 164 164 162 158 158 155 156 150 149 157 172 188 199 179 172 188 204 211 188 183 227 267 298 296 279 257 257 251 269 294
309 83 54 62 62 16 51 331 312 308 283 229 205 172 163 152 155 155 155 154 154 151 156 160 168 189 217 185 195 197 204 195 183 219 248 257 268 288 281 290 284 290 281 281
288 6 167 331 26 2 24 352 344 335 312 259 199 186 161 157 160 156 151 151 157 161 165 151 137 124 143 160 168 175 176 171 189 227 254 264 260 274 247 224 256 280 259 291
268 342 312 320 347 356 9 346 342 329 322 261 202 172 165 157 155 152 153 155 156 161 140 123 134 141 134 144 163 166 178 188 202 240 273 272 275 248 208 262 210 217 229 245
251 277 296 293 300 242 333 327 325 325 302 271 206 175 164 151 157 152 154 159 154 146 139 149 151 144 150 161 166 182 227 248 260 250 262 277 269 267 283 200 212 220 232 236
217 273 275 264 284 319 320 326 309 309 304 229 176 166 158 150 146 159 167 160 145 147 153 157 153 153 145 154 174 198 221 114 250 261 281 295 273 258 265 275 287 291 220 235
269 230 243 289 294 295 306 310 321 343 340 196 165 163 169 157 171 171 155 155 148 152 157 161 156 157 161 163 198 204 217 245 254 263 264 292 291 264 244 261 277 290 301 279
262 266 274 270 277 286 296 299 296 317 336 280 200 185 186 204 161 160 157 157 155 171 166 168 165 161 181 197 222 218 224 244 266 253 263 262 248 219 215 234 243 240 242 288
266 268 262 254 253 263 266 280 272 296 303 291 239 204 180 173 163 161 164 163 161 159 165 162 162 157 162 212 243 254 254 260 255 263 258 236 235 224 227 235 228 209 112 34
253 250 247 253 264 252 254 266 274 275 279 317 226 186 181 176 186 167 168 160 150 152 174 159 155 162 174 208 248 267 272 279 273 254 233 212 214 201 204 198 190 178 133 73
256 236 236 230 234 235 250 270 258 255 269 295 217 204 201 190 184 172 153 164 163 171 183 166 157 178 191 220 256 267 272 277 282 266 248 213 192 190 190 178 172 148 141 119
266 237 228 221 220 232 242 246 241 257 242 246 225 204 194 185 166 173 170 179 166 175 160 165 170 192 210 239 250 274 296 286 268 268 249 213 197 177 170 175 155 165 148 143
258 214 201 201 213 226 234 234 253 249 252 223 209 207 203 171 162 164 165 184 175 149 154 148 179 182 209 237 243 266 267 264 262 255 225 213 171 172 169 168 166 176 153 147
198 185 190 189 201 210 230 252 244 243 238 224 206 189 165 167 171 169 149 150 154 160 148 169 186 174 195 213 252 258 282 280 272 256 223 192 174 169 168 167 172 182 159 154
175 172 175 184 198 231 230 228 231 226 225 206 191 186 187 178 159 156 154 155 137 186 172 176 157 165 187 236 266 289 280 267 270 266 225 183 167 162 156 156 161 185 153 151
179 148 185 146 135 186 154 111 100 106 114 115 124 144 161 147 131 108 90 152 154 158 180 163 157 157 215 232 35 287 276 290 280 276 263 168 165 157 146 142 140 144 106 115
130 103 92 128 141 122 114 152 107 110 108 104 109 85 58 15 118 166 151 139 128 166 172 130 139 158 200 126 1 306 301 314 315 282 223 141 137 138 140 136 141 128 110 112
72 96 112 99 180 109 82 57 24 266 165 122 90 100 103 138 109 144 136 138 159 176 173 159 174 187 153 121 144 94 91 86 95 94 94 100 117 124 125 128 129 118 143 212
81 95 100 85 64 351 213 179 193 159 123 120 117 144 144 128 106 121 135 155 166 184 176 171 165 173 160 149 148 127 95 96 83 108 114 116 113 117 132 134 147 188 197 185